When you browse on this site, cookies collect data to enhance your experience and personalize the content and advertising you see.
Visit our Privacy Policy to learn more. By continuing to use the site, you agree to this use of cookies and data.
  • In Hungary
  • List of Countries
  • For 7 days
  • Water Temperature
  • Weather Map
  • News
  • Weather Widgets
  • user-avatar
    Login

    Hourly Weather Enermuchash

    Today, 19 September, Thursday

    Time Temperature Precipitation Wind Pressure Humidity
    00:00 +4°C° 0 mm 0 mps 730 mmHg 93%
    01:00 +5°C° 0 mm 1 mps 730 mmHg 94%
    02:00 +5°C° 0 mm 1 mps 729 mmHg 94%
    03:00 +5°C° 0 mm 1 mps 729 mmHg 94%
    04:00 +5°C° 0 mm 1 mps 729 mmHg 95%
    05:00 +3°C° 0 mm 2 mps 728 mmHg 95%
    06:00 +3°C° 0 mm 2 mps 728 mmHg 95%
    07:00 +4°C° 0 mm 3 mps 728 mmHg 90%
    08:00 +5°C° 0 mm 4 mps 728 mmHg 86%
    09:00 +6°C° 0 mm 4 mps 729 mmHg 81%
    10:00 +8°C° 0.1 mm 4 mps 729 mmHg 77%
    11:00 +9°C° 0.1 mm 5 mps 730 mmHg 72%
    12:00 +10°C° 0.1 mm 5 mps 730 mmHg 68%
    13:00 +9°C° 0.3 mm 6 mps 731 mmHg 70%
    14:00 +9°C° 0.3 mm 6 mps 732 mmHg 71%
    15:00 +9°C° 0.3 mm 6 mps 733 mmHg 73%
    16:00 +8°C° 0.2 mm 5 mps 733 mmHg 78%
    17:00 +7°C° 0.2 mm 5 mps 734 mmHg 84%
    18:00 +6°C° 0.2 mm 4 mps 735 mmHg 90%
    19:00 +6°C° 0.1 mm 4 mps 735 mmHg 90%
    20:00 +5°C° 0.1 mm 4 mps 736 mmHg 90%
    21:00 +5°C° 0.1 mm 4 mps 737 mmHg 91%
    22:00 +4°C° 0 mm 3 mps 737 mmHg 92%
    23:00 +3°C° 0 mm 3 mps 738 mmHg 94%

    Tomorrow, 20 September, Friday

    Time Temperature Precipitation Wind Pressure Humidity
    00:00 +2°C° 0 mm 3 mps 738 mmHg 96%
    01:00 +2°C° 0 mm 3 mps 738 mmHg 96%
    02:00 +3°C° 0 mm 2 mps 739 mmHg 95%
    03:00 +3°C° 0 mm 2 mps 739 mmHg 95%
    04:00 +3°C° 0 mm 2 mps 740 mmHg 94%
    05:00 +3°C° 0 mm 2 mps 740 mmHg 93%
    06:00 +4°C° 0 mm 2 mps 740 mmHg 92%
    07:00 +4°C° 0.1 mm 2 mps 741 mmHg 87%
    08:00 +5°C° 0.1 mm 2 mps 741 mmHg 81%
    09:00 +6°C° 0.1 mm 2 mps 741 mmHg 76%
    10:00 +7°C° 0.1 mm 2 mps 741 mmHg 72%
    11:00 +7°C° 0.1 mm 2 mps 741 mmHg 67%
    12:00 +8°C° 0.1 mm 2 mps 741 mmHg 63%
    13:00 +8°C° 0.1 mm 2 mps 741 mmHg 62%
    14:00 +8°C° 0.1 mm 2 mps 741 mmHg 62%
    15:00 +8°C° 0.1 mm 2 mps 741 mmHg 62%
    16:00 +7°C° 0 mm 2 mps 741 mmHg 66%
    17:00 +7°C° 0 mm 1 mps 741 mmHg 70%
    18:00 +6°C° 0 mm 1 mps 741 mmHg 75%
    19:00 +5°C° 0 mm 1 mps 741 mmHg 76%
    20:00 +5°C° 0 mm 1 mps 741 mmHg 77%
    21:00 +5°C° 0 mm 1 mps 741 mmHg 78%
    22:00 +5°C° 0 mm 1 mps 741 mmHg 81%
    23:00 +5°C° 0 mm 1 mps 740 mmHg 83%

    Day after tomorrow, 21 September, Saturday

    Time Temperature Precipitation Wind Pressure Humidity
    00:00 +4°C° 0 mm 1 mps 740 mmHg 86%
    01:00 +4°C° 0.1 mm 1 mps 740 mmHg 87%
    02:00 +5°C° 0.1 mm 1 mps 740 mmHg 87%
    03:00 +4°C° 0.1 mm 0 mps 739 mmHg 88%
    04:00 +5°C° 0.4 mm 1 mps 739 mmHg 89%
    05:00 +5°C° 0.4 mm 1 mps 739 mmHg 89%
    06:00 +4°C° 0.4 mm 2 mps 739 mmHg 90%
    07:00 +4°C° 0.2 mm 2 mps 739 mmHg 91%
    08:00 +4°C° 0.2 mm 2 mps 739 mmHg 93%
    09:00 +4°C° 0.2 mm 2 mps 739 mmHg 94%
    10:00 +4°C° 0 mm 2 mps 739 mmHg 88%
    11:00 +5°C° 0 mm 2 mps 739 mmHg 82%
    12:00 +7°C° 0 mm 1 mps 739 mmHg 77%
    13:00 +7°C° 0.1 mm 2 mps 739 mmHg 73%
    14:00 +7°C° 0.1 mm 2 mps 739 mmHg 69%
    15:00 +8°C° 0.1 mm 2 mps 738 mmHg 65%
    16:00 +7°C° 0 mm 2 mps 738 mmHg 70%
    17:00 +5°C° 0 mm 2 mps 738 mmHg 76%
    18:00 +4°C° 0 mm 2 mps 738 mmHg 82%
    19:00 +4°C° 0 mm 2 mps 738 mmHg 84%
    20:00 +3°C° 0 mm 2 mps 737 mmHg 86%
    21:00 +2°C° 0 mm 2 mps 737 mmHg 89%
    22:00 +2°C° 0 mm 2 mps 737 mmHg 90%
    23:00 +2°C° 0 mm 2 mps 736 mmHg 90%

    22 September, Sunday

    Time Temperature Precipitation Wind Pressure Humidity
    00:00 +1°C° 0 mm 2 mps 736 mmHg 91%
    01:00 +1°C° 0 mm 2 mps 736 mmHg 92%
    02:00 +1°C° 0 mm 2 mps 735 mmHg 92%
    03:00 +1°C° 0 mm 2 mps 735 mmHg 92%
    04:00 0°C° 0 mm 3 mps 734 mmHg 91%
    05:00 0°C° 0 mm 3 mps 734 mmHg 91%
    06:00 0°C° 0 mm 3 mps 733 mmHg 90%
    07:00 +1°C° 0 mm 4 mps 733 mmHg 86%
    08:00 +3°C° 0 mm 4 mps 732 mmHg 83%
    09:00 +3°C° 0 mm 5 mps 732 mmHg 79%
    10:00 +5°C° 0.2 mm 5 mps 731 mmHg 75%
    11:00 +6°C° 0.2 mm 5 mps 731 mmHg 71%
    12:00 +7°C° 0.2 mm 6 mps 730 mmHg 67%
    13:00 +7°C° 0.2 mm 6 mps 729 mmHg 68%
    14:00 +5°C° 0.2 mm 6 mps 728 mmHg 69%
    15:00 +5°C° 0.2 mm 6 mps 728 mmHg 70%
    16:00 +6°C° 0.1 mm 5 mps 727 mmHg 74%
    17:00 +5°C° 0.1 mm 5 mps 727 mmHg 77%
    18:00 +4°C° 0.1 mm 4 mps 726 mmHg 81%
    19:00 +3°C° 0.1 mm 5 mps 726 mmHg 83%
    20:00 +3°C° 0.1 mm 5 mps 725 mmHg 84%
    21:00 +2°C° 0.1 mm 6 mps 725 mmHg 86%
    22:00 +2°C° 0.1 mm 6 mps 725 mmHg 87%
    23:00 +2°C° 0.1 mm 6 mps 725 mmHg 87%

    23 September, Monday

    Time Temperature Precipitation Wind Pressure Humidity
    00:00 +2°C° 0.1 mm 6 mps 725 mmHg 88%
    01:00 +2°C° 0.2 mm 7 mps 725 mmHg 88%
    02:00 0°C° 0.2 mm 7 mps 726 mmHg 88%
    03:00 0°C° 0.2 mm 7 mps 726 mmHg 87%
    04:00 0°C° 0 mm 7 mps 727 mmHg 87%
    05:00 0°C° 0 mm 7 mps 728 mmHg 88%
    06:00 -1°C° 0 mm 8 mps 729 mmHg 88%
    07:00 0°C° 0 mm 8 mps 730 mmHg 85%
    08:00 0°C° 0 mm 8 mps 731 mmHg 83%
    09:00 0°C° 0 mm 8 mps 731 mmHg 80%
    10:00 +1°C° 0 mm 8 mps 732 mmHg 77%
    11:00 +1°C° 0 mm 8 mps 733 mmHg 74%
    12:00 +1°C° 0 mm 8 mps 734 mmHg 71%
    13:00 +1°C° 0 mm 8 mps 734 mmHg 69%
    14:00 +3°C° 0 mm 7 mps 735 mmHg 68%
    15:00 +3°C° 0 mm 7 mps 735 mmHg 66%
    16:00 +2°C° 0 mm 6 mps 736 mmHg 68%
    17:00 +2°C° 0 mm 6 mps 736 mmHg 70%
    18:00 +1°C° 0 mm 5 mps 737 mmHg 72%
    19:00 +1°C° 0 mm 5 mps 737 mmHg 75%
    20:00 0°C° 0 mm 5 mps 737 mmHg 78%
    21:00 -1°C° 0 mm 5 mps 737 mmHg 81%
    22:00 -2°C° 0 mm 6 mps 737 mmHg 82%
    23:00 -2°C° 0 mm 6 mps 737 mmHg 83%

    24 September, Tuesday

    Time Temperature Precipitation Wind Pressure Humidity
    00:00 -2°C° 0 mm 6 mps 737 mmHg 83%
    01:00 -2°C° 0 mm 6 mps 737 mmHg 83%
    02:00 -2°C° 0 mm 7 mps 737 mmHg 82%
    03:00 -2°C° 0 mm 7 mps 737 mmHg 82%
    04:00 -2°C° 0 mm 7 mps 737 mmHg 85%
    05:00 -2°C° 0 mm 7 mps 737 mmHg 89%
    06:00 -2°C° 0 mm 7 mps 738 mmHg 93%
    07:00 -2°C° 0.1 mm 7 mps 738 mmHg 93%
    08:00 -2°C° 0.1 mm 7 mps 738 mmHg 93%
    09:00 -2°C° 0.1 mm 6 mps 738 mmHg 93%
    10:00 -1°C° 0.1 mm 6 mps 739 mmHg 87%
    11:00 +1°C° 0.1 mm 6 mps 740 mmHg 80%
    12:00 +2°C° 0.1 mm 6 mps 740 mmHg 74%
    13:00 +2°C° 0 mm 6 mps 740 mmHg 73%
    14:00 +2°C° 0 mm 6 mps 741 mmHg 72%
    15:00 +2°C° 0 mm 6 mps 741 mmHg 72%
    16:00 +1°C° 0 mm 5 mps 741 mmHg 76%
    17:00 0°C° 0 mm 4 mps 742 mmHg 80%
    18:00 0°C° 0 mm 3 mps 742 mmHg 84%
    19:00 -1°C° 0 mm 3 mps 743 mmHg 86%
    20:00 -1°C° 0 mm 2 mps 743 mmHg 88%
    21:00 -2°C° 0 mm 2 mps 743 mmHg 90%
    22:00 -2°C° 0 mm 2 mps 743 mmHg 90%
    23:00 0°C° 0 mm 1 mps 743 mmHg 90%
    Show more